owner,sensor,date,latitude,longitude,air_temperature,qcFlag 
COMPS,ioos:station:USF.COMPS:TAR:1,2009-03-01T00:00:00Z,28.1560,-82.7580,21.41,1111122 
COMPS,ioos:station:USF.COMPS:TAR:1,2009-03-01T00:06:00Z,28.1560,-82.7580,21.37,1111122 
COMPS,ioos:station:USF.COMPS:TAR:1,2009-03-01T00:12:00Z,28.1560,-82.7580,21.3,1111122 
COMPS,ioos:station:USF.COMPS:TAR:1,2009-03-01T00:18:00Z,28.1560,-82.7580,21.26,1111122 
COMPS,ioos:station:USF.COMPS:TAR:1,2009-03-01T00:24:00Z,28.1560,-82.7580,21.22,1111122 
COMPS,ioos:station:USF.COMPS:TAR:1,2009-03-01T00:30:00Z,28.1560,-82.7580,21.14,1111122 
COMPS,ioos:station:USF.COMPS:TAR:1,2009-03-01T00:36:00Z,28.1560,-82.7580,21.14,1111122 
COMPS,ioos:station:USF.COMPS:TAR:1,2009-03-01T00:42:00Z,28.1560,-82.7580,21.11,1111122 
COMPS,ioos:station:USF.COMPS:TAR:1,2009-03-01T00:48:00Z,28.1560,-82.7580,21.01,1111122 
COMPS,ioos:station:USF.COMPS:TAR:1,2009-03-01T00:54:00Z,28.1560,-82.7580,20.99,1111122 
COMPS,ioos:station:USF.COMPS:TAR:1,2009-03-01T01:00:00Z,28.1560,-82.7580,20.87,1111122 
COMPS,ioos:station:USF.COMPS:TAR:1,2009-03-01T01:06:00Z,28.1560,-82.7580,20.85,1111122 
COMPS,ioos:station:USF.COMPS:TAR:1,2009-03-01T01:12:00Z,28.1560,-82.7580,20.86,1111122 
COMPS,ioos:station:USF.COMPS:TAR:1,2009-03-01T01:18:00Z,28.1560,-82.7580,20.87,1111122 
COMPS,ioos:station:USF.COMPS:TAR:1,2009-03-01T01:24:00Z,28.1560,-82.7580,20.9,1111122 
COMPS,ioos:station:USF.COMPS:TAR:1,2009-03-01T01:30:00Z,28.1560,-82.7580,20.87,1111122 
COMPS,ioos:station:USF.COMPS:TAR:1,2009-03-01T01:36:00Z,28.1560,-82.7580,20.87,1111122 
COMPS,ioos:station:USF.COMPS:TAR:1,2009-03-01T01:42:00Z,28.1560,-82.7580,20.87,1111122 
COMPS,ioos:station:USF.COMPS:TAR:1,2009-03-01T01:48:00Z,28.1560,-82.7580,20.87,1111122 
COMPS,ioos:station:USF.COMPS:TAR:1,2009-03-01T01:54:00Z,28.1560,-82.7580,20.8,1111122 
COMPS,ioos:station:USF.COMPS:TAR:1,2009-03-01T02:00:00Z,28.1560,-82.7580,20.75,1111122 
COMPS,ioos:station:USF.COMPS:TAR:1,2009-03-01T02:06:00Z,28.1560,-82.7580,20.73,1111122 
COMPS,ioos:station:USF.COMPS:TAR:1,2009-03-01T02:12:00Z,28.1560,-82.7580,20.73,1111122 
COMPS,ioos:station:USF.COMPS:TAR:1,2009-03-01T02:18:00Z,28.1560,-82.7580,20.61,1111122 
COMPS,ioos:station:USF.COMPS:TAR:1,2009-03-01T02:24:00Z,28.1560,-82.7580,20.73,1111122 
COMPS,ioos:station:USF.COMPS:TAR:1,2009-03-01T02:30:00Z,28.1560,-82.7580,20.72,1111122 
COMPS,ioos:station:USF.COMPS:TAR:1,2009-03-01T02:36:00Z,28.1560,-82.7580,20.64,1111122 
COMPS,ioos:station:USF.COMPS:TAR:1,2009-03-01T02:42:00Z,28.1560,-82.7580,20.6,1111122 
COMPS,ioos:station:USF.COMPS:TAR:1,2009-03-01T02:48:00Z,28.1560,-82.7580,20.6,1111122 
COMPS,ioos:station:USF.COMPS:TAR:1,2009-03-01T02:54:00Z,28.1560,-82.7580,20.62,1111122 
COMPS,ioos:station:USF.COMPS:TAR:1,2009-03-01T03:00:00Z,28.1560,-82.7580,20.62,1111122 
COMPS,ioos:station:USF.COMPS:TAR:1,2009-03-01T03:06:00Z,28.1560,-82.7580,20.53,1111122 
COMPS,ioos:station:USF.COMPS:TAR:1,2009-03-01T03:12:00Z,28.1560,-82.7580,20.46,1111122 
COMPS,ioos:station:USF.COMPS:TAR:1,2009-03-01T03:18:00Z,28.1560,-82.7580,20.47,1111122 
COMPS,ioos:station:USF.COMPS:TAR:1,2009-03-01T03:24:00Z,28.1560,-82.7580,20.54,1111122 
COMPS,ioos:station:USF.COMPS:TAR:1,2009-03-01T03:30:00Z,28.1560,-82.7580,20.47,1111122 
COMPS,ioos:station:USF.COMPS:TAR:1,2009-03-01T03:36:00Z,28.1560,-82.7580,20.52,1111122 
COMPS,ioos:station:USF.COMPS:TAR:1,2009-03-01T03:42:00Z,28.1560,-82.7580,20.48,1111122 
COMPS,ioos:station:USF.COMPS:TAR:1,2009-03-01T03:48:00Z,28.1560,-82.7580,20.46,1111122 
COMPS,ioos:station:USF.COMPS:TAR:1,2009-03-01T03:54:00Z,28.1560,-82.7580,20.46,1111122 
COMPS,ioos:station:USF.COMPS:TAR:1,2009-03-01T04:00:00Z,28.1560,-82.7580,20.37,1111122 
COMPS,ioos:station:USF.COMPS:TAR:1,2009-03-01T04:06:00Z,28.1560,-82.7580,20.35,1111122 
COMPS,ioos:station:USF.COMPS:TAR:1,2009-03-01T04:12:00Z,28.1560,-82.7580,20.41,1111122 
COMPS,ioos:station:USF.COMPS:TAR:1,2009-03-01T04:18:00Z,28.1560,-82.7580,20.35,1111122 
COMPS,ioos:station:USF.COMPS:TAR:1,2009-03-01T04:24:00Z,28.1560,-82.7580,20.41,1111122 
COMPS,ioos:station:USF.COMPS:TAR:1,2009-03-01T04:30:00Z,28.1560,-82.7580,20.4,1111122 
COMPS,ioos:station:USF.COMPS:TAR:1,2009-03-01T04:36:00Z,28.1560,-82.7580,20.39,1111122 
COMPS,ioos:station:USF.COMPS:TAR:1,2009-03-01T04:42:00Z,28.1560,-82.7580,20.46,1111122 
COMPS,ioos:station:USF.COMPS:TAR:1,2009-03-01T04:48:00Z,28.1560,-82.7580,20.46,1111122 
COMPS,ioos:station:USF.COMPS:TAR:1,2009-03-01T04:54:00Z,28.1560,-82.7580,20.43,1111122 
COMPS,ioos:station:USF.COMPS:TAR:1,2009-03-01T05:00:00Z,28.1560,-82.7580,20.35,1111122 
COMPS,ioos:station:USF.COMPS:TAR:1,2009-03-01T05:06:00Z,28.1560,-82.7580,20.33,1111122 
COMPS,ioos:station:USF.COMPS:TAR:1,2009-03-01T05:12:00Z,28.1560,-82.7580,20.34,1111122 
COMPS,ioos:station:USF.COMPS:TAR:1,2009-03-01T05:18:00Z,28.1560,-82.7580,20.34,1111122 
COMPS,ioos:station:USF.COMPS:TAR:1,2009-03-01T05:24:00Z,28.1560,-82.7580,20.37,1111122 
COMPS,ioos:station:USF.COMPS:TAR:1,2009-03-01T05:30:00Z,28.1560,-82.7580,20.33,1111122 
COMPS,ioos:station:USF.COMPS:TAR:1,2009-03-01T05:36:00Z,28.1560,-82.7580,20.39,1111122 
COMPS,ioos:station:USF.COMPS:TAR:1,2009-03-01T05:42:00Z,28.1560,-82.7580,20.46,1111122 
COMPS,ioos:station:USF.COMPS:TAR:1,2009-03-01T05:48:00Z,28.1560,-82.7580,20.46,1111122 
COMPS,ioos:station:USF.COMPS:TAR:1,2009-03-01T05:54:00Z,28.1560,-82.7580,20.46,1111122 
COMPS,ioos:station:USF.COMPS:TAR:1,2009-03-01T06:00:00Z,28.1560,-82.7580,20.45,1111122 
COMPS,ioos:station:USF.COMPS:TAR:1,2009-03-01T06:06:00Z,28.1560,-82.7580,20.46,1111122 
COMPS,ioos:station:USF.COMPS:TAR:1,2009-03-01T06:12:00Z,28.1560,-82.7580,20.46,1111122 
COMPS,ioos:station:USF.COMPS:TAR:1,2009-03-01T06:18:00Z,28.1560,-82.7580,20.46,1111122 
COMPS,ioos:station:USF.COMPS:TAR:1,2009-03-01T06:24:00Z,28.1560,-82.7580,20.5,1111122 
COMPS,ioos:station:USF.COMPS:TAR:1,2009-03-01T06:30:00Z,28.1560,-82.7580,20.46,1111122 
COMPS,ioos:station:USF.COMPS:TAR:1,2009-03-01T06:36:00Z,28.1560,-82.7580,20.46,1111122 
COMPS,ioos:station:USF.COMPS:TAR:1,2009-03-01T06:42:00Z,28.1560,-82.7580,20.43,1111122 
COMPS,ioos:station:USF.COMPS:TAR:1,2009-03-01T06:48:00Z,28.1560,-82.7580,20.46,1111122 
COMPS,ioos:station:USF.COMPS:TAR:1,2009-03-01T06:54:00Z,28.1560,-82.7580,20.46,1111122 
COMPS,ioos:station:USF.COMPS:TAR:1,2009-03-01T07:00:00Z,28.1560,-82.7580,20.46,1111122 
COMPS,ioos:station:USF.COMPS:TAR:1,2009-03-01T07:06:00Z,28.1560,-82.7580,20.59,1111122 
COMPS,ioos:station:USF.COMPS:TAR:1,2009-03-01T07:12:00Z,28.1560,-82.7580,20.6,1111122 
COMPS,ioos:station:USF.COMPS:TAR:1,2009-03-01T07:18:00Z,28.1560,-82.7580,20.6,1111122 
COMPS,ioos:station:USF.COMPS:TAR:1,2009-03-01T07:24:00Z,28.1560,-82.7580,20.55,1111122 
COMPS,ioos:station:USF.COMPS:TAR:1,2009-03-01T07:30:00Z,28.1560,-82.7580,20.47,1111122 
COMPS,ioos:station:USF.COMPS:TAR:1,2009-03-01T07:36:00Z,28.1560,-82.7580,20.34,1111122 
COMPS,ioos:station:USF.COMPS:TAR:1,2009-03-01T07:42:00Z,28.1560,-82.7580,20.21,1111122 
COMPS,ioos:station:USF.COMPS:TAR:1,2009-03-01T07:48:00Z,28.1560,-82.7580,20.14,1111122 
COMPS,ioos:station:USF.COMPS:TAR:1,2009-03-01T07:54:00Z,28.1560,-82.7580,20.11,1111122 
COMPS,ioos:station:USF.COMPS:TAR:1,2009-03-01T08:00:00Z,28.1560,-82.7580,20.06,1111122 
COMPS,ioos:station:USF.COMPS:TAR:1,2009-03-01T08:06:00Z,28.1560,-82.7580,20.06,1111122 
COMPS,ioos:station:USF.COMPS:TAR:1,2009-03-01T08:12:00Z,28.1560,-82.7580,20.06,1111122 
COMPS,ioos:station:USF.COMPS:TAR:1,2009-03-01T08:18:00Z,28.1560,-82.7580,20.11,1111122 
COMPS,ioos:station:USF.COMPS:TAR:1,2009-03-01T08:24:00Z,28.1560,-82.7580,20.23,1111122 
COMPS,ioos:station:USF.COMPS:TAR:1,2009-03-01T08:30:00Z,28.1560,-82.7580,20.19,1111122 
COMPS,ioos:station:USF.COMPS:TAR:1,2009-03-01T08:36:00Z,28.1560,-82.7580,20.19,1111122 
COMPS,ioos:station:USF.COMPS:TAR:1,2009-03-01T08:42:00Z,28.1560,-82.7580,20.19,1111122 
COMPS,ioos:station:USF.COMPS:TAR:1,2009-03-01T08:48:00Z,28.1560,-82.7580,20.12,1111122 
COMPS,ioos:station:USF.COMPS:TAR:1,2009-03-01T08:54:00Z,28.1560,-82.7580,20.06,1111122 
COMPS,ioos:station:USF.COMPS:TAR:1,2009-03-01T09:00:00Z,28.1560,-82.7580,20.01,1111122 
COMPS,ioos:station:USF.COMPS:TAR:1,2009-03-01T09:06:00Z,28.1560,-82.7580,20.03,1111122 
COMPS,ioos:station:USF.COMPS:TAR:1,2009-03-01T09:12:00Z,28.1560,-82.7580,20.01,1111122 
COMPS,ioos:station:USF.COMPS:TAR:1,2009-03-01T09:18:00Z,28.1560,-82.7580,20.03,1111122 
COMPS,ioos:station:USF.COMPS:TAR:1,2009-03-01T09:24:00Z,28.1560,-82.7580,20.14,1111122 
COMPS,ioos:station:USF.COMPS:TAR:1,2009-03-01T09:30:00Z,28.1560,-82.7580,20.06,1111122 
COMPS,ioos:station:USF.COMPS:TAR:1,2009-03-01T09:36:00Z,28.1560,-82.7580,20.06,1111122 
COMPS,ioos:station:USF.COMPS:TAR:1,2009-03-01T09:42:00Z,28.1560,-82.7580,20.06,1111122 
COMPS,ioos:station:USF.COMPS:TAR:1,2009-03-01T09:48:00Z,28.1560,-82.7580,20.05,1111122 
COMPS,ioos:station:USF.COMPS:TAR:1,2009-03-01T09:54:00Z,28.1560,-82.7580,20.07,1111122 
COMPS,ioos:station:USF.COMPS:TAR:1,2009-03-01T10:00:00Z,28.1560,-82.7580,20.07,1111122 
COMPS,ioos:station:USF.COMPS:TAR:1,2009-03-01T10:06:00Z,28.1560,-82.7580,20.06,1111122 
COMPS,ioos:station:USF.COMPS:TAR:1,2009-03-01T10:12:00Z,28.1560,-82.7580,20.06,1111122 
COMPS,ioos:station:USF.COMPS:TAR:1,2009-03-01T10:18:00Z,28.1560,-82.7580,20.06,1111122 
COMPS,ioos:station:USF.COMPS:TAR:1,2009-03-01T10:24:00Z,28.1560,-82.7580,20.09,1111122 
COMPS,ioos:station:USF.COMPS:TAR:1,2009-03-01T10:30:00Z,28.1560,-82.7580,20.06,1111122 
COMPS,ioos:station:USF.COMPS:TAR:1,2009-03-01T10:36:00Z,28.1560,-82.7580,20.17,1111122 
COMPS,ioos:station:USF.COMPS:TAR:1,2009-03-01T10:42:00Z,28.1560,-82.7580,20.2,1111122 
COMPS,ioos:station:USF.COMPS:TAR:1,2009-03-01T10:48:00Z,28.1560,-82.7580,20.27,1111122 
COMPS,ioos:station:USF.COMPS:TAR:1,2009-03-01T10:54:00Z,28.1560,-82.7580,20.33,1111122 
COMPS,ioos:station:USF.COMPS:TAR:1,2009-03-01T11:00:00Z,28.1560,-82.7580,20.41,1111122 
COMPS,ioos:station:USF.COMPS:TAR:1,2009-03-01T11:06:00Z,28.1560,-82.7580,20.46,1111122 
COMPS,ioos:station:USF.COMPS:TAR:1,2009-03-01T11:12:00Z,28.1560,-82.7580,20.47,1111122 
COMPS,ioos:station:USF.COMPS:TAR:1,2009-03-01T11:18:00Z,28.1560,-82.7580,20.53,1111122 
COMPS,ioos:station:USF.COMPS:TAR:1,2009-03-01T11:24:00Z,28.1560,-82.7580,20.64,1111122 
COMPS,ioos:station:USF.COMPS:TAR:1,2009-03-01T11:30:00Z,28.1560,-82.7580,20.6,1111122 
COMPS,ioos:station:USF.COMPS:TAR:1,2009-03-01T11:36:00Z,28.1560,-82.7580,20.53,1111122 
COMPS,ioos:station:USF.COMPS:TAR:1,2009-03-01T11:42:00Z,28.1560,-82.7580,20.47,1111122 
COMPS,ioos:station:USF.COMPS:TAR:1,2009-03-01T11:48:00Z,28.1560,-82.7580,20.46,1111122 
COMPS,ioos:station:USF.COMPS:TAR:1,2009-03-01T11:54:00Z,28.1560,-82.7580,20.54,1111122 
COMPS,ioos:station:USF.COMPS:TAR:1,2009-03-01T12:00:00Z,28.1560,-82.7580,20.58,1111122 
COMPS,ioos:station:USF.COMPS:TAR:1,2009-03-01T12:06:00Z,28.1560,-82.7580,19.14,1111122 
COMPS,ioos:station:USF.COMPS:TAR:1,2009-03-01T12:12:00Z,28.1560,-82.7580,17.92,1111122 
COMPS,ioos:station:USF.COMPS:TAR:1,2009-03-01T12:18:00Z,28.1560,-82.7580,17.34,1111122 
COMPS,ioos:station:USF.COMPS:TAR:1,2009-03-01T12:24:00Z,28.1560,-82.7580,16.96,1111122 
COMPS,ioos:station:USF.COMPS:TAR:1,2009-03-01T12:30:00Z,28.1560,-82.7580,16.58,1111122 
COMPS,ioos:station:USF.COMPS:TAR:1,2009-03-01T12:36:00Z,28.1560,-82.7580,16.35,1111122 
COMPS,ioos:station:USF.COMPS:TAR:1,2009-03-01T12:42:00Z,28.1560,-82.7580,16.01,1111122 
COMPS,ioos:station:USF.COMPS:TAR:1,2009-03-01T12:48:00Z,28.1560,-82.7580,15.77,1111122 
COMPS,ioos:station:USF.COMPS:TAR:1,2009-03-01T12:54:00Z,28.1560,-82.7580,15.57,1111122 
COMPS,ioos:station:USF.COMPS:TAR:1,2009-03-01T13:00:00Z,28.1560,-82.7580,15.41,1111122 
COMPS,ioos:station:USF.COMPS:TAR:1,2009-03-01T13:06:00Z,28.1560,-82.7580,15.25,1111122 
COMPS,ioos:station:USF.COMPS:TAR:1,2009-03-01T13:12:00Z,28.1560,-82.7580,15.09,1111122 
COMPS,ioos:station:USF.COMPS:TAR:1,2009-03-01T13:18:00Z,28.1560,-82.7580,14.87,1111122 
COMPS,ioos:station:USF.COMPS:TAR:1,2009-03-01T13:24:00Z,28.1560,-82.7580,14.95,1111122 
COMPS,ioos:station:USF.COMPS:TAR:1,2009-03-01T13:30:00Z,28.1560,-82.7580,14.67,1111122 
COMPS,ioos:station:USF.COMPS:TAR:1,2009-03-01T13:36:00Z,28.1560,-82.7580,14.67,1111122 
COMPS,ioos:station:USF.COMPS:TAR:1,2009-03-01T13:42:00Z,28.1560,-82.7580,14.59,1111122 
COMPS,ioos:station:USF.COMPS:TAR:1,2009-03-01T13:48:00Z,28.1560,-82.7580,14.21,1111122 
COMPS,ioos:station:USF.COMPS:TAR:1,2009-03-01T13:54:00Z,28.1560,-82.7580,14.19,1111122 
COMPS,ioos:station:USF.COMPS:TAR:1,2009-03-01T14:00:00Z,28.1560,-82.7580,13.87,1111122 
COMPS,ioos:station:USF.COMPS:TAR:1,2009-03-01T14:06:00Z,28.1560,-82.7580,13.4,1111122 
COMPS,ioos:station:USF.COMPS:TAR:1,2009-03-01T14:12:00Z,28.1560,-82.7580,12.96,1111122 
COMPS,ioos:station:USF.COMPS:TAR:1,2009-03-01T14:18:00Z,28.1560,-82.7580,12.7,1111122 
COMPS,ioos:station:USF.COMPS:TAR:1,2009-03-01T14:24:00Z,28.1560,-82.7580,12.6,1111122 
COMPS,ioos:station:USF.COMPS:TAR:1,2009-03-01T14:30:00Z,28.1560,-82.7580,12.5,1111122 
COMPS,ioos:station:USF.COMPS:TAR:1,2009-03-01T14:36:00Z,28.1560,-82.7580,12.75,1111122 
COMPS,ioos:station:USF.COMPS:TAR:1,2009-03-01T14:42:00Z,28.1560,-82.7580,12.92,1111122 
COMPS,ioos:station:USF.COMPS:TAR:1,2009-03-01T14:48:00Z,28.1560,-82.7580,12.93,1111122 
COMPS,ioos:station:USF.COMPS:TAR:1,2009-03-01T14:54:00Z,28.1560,-82.7580,13.24,1111122 
COMPS,ioos:station:USF.COMPS:TAR:1,2009-03-01T15:00:00Z,28.1560,-82.7580,13.58,1111122 
COMPS,ioos:station:USF.COMPS:TAR:1,2009-03-01T15:06:00Z,28.1560,-82.7580,14.13,1111122 
COMPS,ioos:station:USF.COMPS:TAR:1,2009-03-01T15:12:00Z,28.1560,-82.7580,14.5,1111122 
COMPS,ioos:station:USF.COMPS:TAR:1,2009-03-01T15:18:00Z,28.1560,-82.7580,14.79,1111122 
COMPS,ioos:station:USF.COMPS:TAR:1,2009-03-01T15:24:00Z,28.1560,-82.7580,15.0,1111122 
COMPS,ioos:station:USF.COMPS:TAR:1,2009-03-01T15:30:00Z,28.1560,-82.7580,15.13,1111122 
COMPS,ioos:station:USF.COMPS:TAR:1,2009-03-01T15:36:00Z,28.1560,-82.7580,14.9,1111122 
COMPS,ioos:station:USF.COMPS:TAR:1,2009-03-01T15:42:00Z,28.1560,-82.7580,14.94,1111122 
COMPS,ioos:station:USF.COMPS:TAR:1,2009-03-01T15:48:00Z,28.1560,-82.7580,15.05,1111122 
COMPS,ioos:station:USF.COMPS:TAR:1,2009-03-01T15:54:00Z,28.1560,-82.7580,15.14,1111122 
COMPS,ioos:station:USF.COMPS:TAR:1,2009-03-01T16:00:00Z,28.1560,-82.7580,15.61,1111122 
COMPS,ioos:station:USF.COMPS:TAR:1,2009-03-01T16:06:00Z,28.1560,-82.7580,16.2,1111122 
COMPS,ioos:station:USF.COMPS:TAR:1,2009-03-01T16:12:00Z,28.1560,-82.7580,16.35,1111122 
COMPS,ioos:station:USF.COMPS:TAR:1,2009-03-01T16:18:00Z,28.1560,-82.7580,16.11,1111122 
COMPS,ioos:station:USF.COMPS:TAR:1,2009-03-01T16:24:00Z,28.1560,-82.7580,15.5,1111122 
COMPS,ioos:station:USF.COMPS:TAR:1,2009-03-01T16:30:00Z,28.1560,-82.7580,15.35,1111122 
COMPS,ioos:station:USF.COMPS:TAR:1,2009-03-01T16:36:00Z,28.1560,-82.7580,15.91,1111122 
COMPS,ioos:station:USF.COMPS:TAR:1,2009-03-01T16:42:00Z,28.1560,-82.7580,17.05,1111122 
COMPS,ioos:station:USF.COMPS:TAR:1,2009-03-01T16:48:00Z,28.1560,-82.7580,17.49,1111122 
COMPS,ioos:station:USF.COMPS:TAR:1,2009-03-01T16:54:00Z,28.1560,-82.7580,16.93,1111122 
COMPS,ioos:station:USF.COMPS:TAR:1,2009-03-01T17:00:00Z,28.1560,-82.7580,16.96,1111122 
COMPS,ioos:station:USF.COMPS:TAR:1,2009-03-01T17:06:00Z,28.1560,-82.7580,17.29,1111122 
COMPS,ioos:station:USF.COMPS:TAR:1,2009-03-01T17:12:00Z,28.1560,-82.7580,16.8,1111122 
COMPS,ioos:station:USF.COMPS:TAR:1,2009-03-01T17:18:00Z,28.1560,-82.7580,17.21,1111122 
COMPS,ioos:station:USF.COMPS:TAR:1,2009-03-01T17:24:00Z,28.1560,-82.7580,17.34,1111122 
COMPS,ioos:station:USF.COMPS:TAR:1,2009-03-01T17:30:00Z,28.1560,-82.7580,17.37,1111122 
COMPS,ioos:station:USF.COMPS:TAR:1,2009-03-01T17:36:00Z,28.1560,-82.7580,17.11,1111122 
COMPS,ioos:station:USF.COMPS:TAR:1,2009-03-01T17:42:00Z,28.1560,-82.7580,16.81,1111122 
COMPS,ioos:station:USF.COMPS:TAR:1,2009-03-01T17:48:00Z,28.1560,-82.7580,16.59,1111122 
COMPS,ioos:station:USF.COMPS:TAR:1,2009-03-01T17:54:00Z,28.1560,-82.7580,16.72,1111122 
COMPS,ioos:station:USF.COMPS:TAR:1,2009-03-01T18:00:00Z,28.1560,-82.7580,16.96,1111122 
COMPS,ioos:station:USF.COMPS:TAR:1,2009-03-01T18:06:00Z,28.1560,-82.7580,16.9,1111122 
COMPS,ioos:station:USF.COMPS:TAR:1,2009-03-01T18:12:00Z,28.1560,-82.7580,17.1,1111122 
COMPS,ioos:station:USF.COMPS:TAR:1,2009-03-01T18:18:00Z,28.1560,-82.7580,17.19,1111122 
COMPS,ioos:station:USF.COMPS:TAR:1,2009-03-01T18:24:00Z,28.1560,-82.7580,17.41,1111122 
COMPS,ioos:station:USF.COMPS:TAR:1,2009-03-01T18:30:00Z,28.1560,-82.7580,17.62,1111122 
COMPS,ioos:station:USF.COMPS:TAR:1,2009-03-01T18:36:00Z,28.1560,-82.7580,17.43,1111122 
COMPS,ioos:station:USF.COMPS:TAR:1,2009-03-01T18:42:00Z,28.1560,-82.7580,17.29,1111122 
COMPS,ioos:station:USF.COMPS:TAR:1,2009-03-01T18:48:00Z,28.1560,-82.7580,17.07,1111122 
COMPS,ioos:station:USF.COMPS:TAR:1,2009-03-01T18:54:00Z,28.1560,-82.7580,17.19,1111122 
COMPS,ioos:station:USF.COMPS:TAR:1,2009-03-01T19:00:00Z,28.1560,-82.7580,17.12,1111122 
COMPS,ioos:station:USF.COMPS:TAR:1,2009-03-01T19:06:00Z,28.1560,-82.7580,17.09,1111122 
COMPS,ioos:station:USF.COMPS:TAR:1,2009-03-01T19:12:00Z,28.1560,-82.7580,16.89,1111122 
COMPS,ioos:station:USF.COMPS:TAR:1,2009-03-01T19:18:00Z,28.1560,-82.7580,16.83,1111122 
COMPS,ioos:station:USF.COMPS:TAR:1,2009-03-01T19:24:00Z,28.1560,-82.7580,17.08,1111122 
COMPS,ioos:station:USF.COMPS:TAR:1,2009-03-01T19:30:00Z,28.1560,-82.7580,17.32,1111122 
COMPS,ioos:station:USF.COMPS:TAR:1,2009-03-01T19:36:00Z,28.1560,-82.7580,17.49,1111122 
COMPS,ioos:station:USF.COMPS:TAR:1,2009-03-01T19:42:00Z,28.1560,-82.7580,17.25,1111122 
COMPS,ioos:station:USF.COMPS:TAR:1,2009-03-01T19:48:00Z,28.1560,-82.7580,16.58,1111122 
COMPS,ioos:station:USF.COMPS:TAR:1,2009-03-01T19:54:00Z,28.1560,-82.7580,16.11,1111122 
COMPS,ioos:station:USF.COMPS:TAR:1,2009-03-01T20:00:00Z,28.1560,-82.7580,16.1,1111122 
COMPS,ioos:station:USF.COMPS:TAR:1,2009-03-01T20:06:00Z,28.1560,-82.7580,15.73,1111122 
COMPS,ioos:station:USF.COMPS:TAR:1,2009-03-01T20:12:00Z,28.1560,-82.7580,15.26,1111122 
COMPS,ioos:station:USF.COMPS:TAR:1,2009-03-01T20:18:00Z,28.1560,-82.7580,15.43,1111122 
COMPS,ioos:station:USF.COMPS:TAR:1,2009-03-01T20:24:00Z,28.1560,-82.7580,15.29,1111122 
COMPS,ioos:station:USF.COMPS:TAR:1,2009-03-01T20:30:00Z,28.1560,-82.7580,15.3,1111122 
COMPS,ioos:station:USF.COMPS:TAR:1,2009-03-01T20:36:00Z,28.1560,-82.7580,15.18,1111122 
COMPS,ioos:station:USF.COMPS:TAR:1,2009-03-01T20:42:00Z,28.1560,-82.7580,15.3,1111122 
COMPS,ioos:station:USF.COMPS:TAR:1,2009-03-01T20:48:00Z,28.1560,-82.7580,15.24,1111122 
COMPS,ioos:station:USF.COMPS:TAR:1,2009-03-01T20:54:00Z,28.1560,-82.7580,15.23,1111122 
COMPS,ioos:station:USF.COMPS:TAR:1,2009-03-01T21:00:00Z,28.1560,-82.7580,15.2,1111122 
COMPS,ioos:station:USF.COMPS:TAR:1,2009-03-01T21:06:00Z,28.1560,-82.7580,15.47,1111122 
COMPS,ioos:station:USF.COMPS:TAR:1,2009-03-01T21:12:00Z,28.1560,-82.7580,15.21,1111122 
COMPS,ioos:station:USF.COMPS:TAR:1,2009-03-01T21:18:00Z,28.1560,-82.7580,15.09,1111122 
COMPS,ioos:station:USF.COMPS:TAR:1,2009-03-01T21:24:00Z,28.1560,-82.7580,15.06,1111122 
COMPS,ioos:station:USF.COMPS:TAR:1,2009-03-01T21:30:00Z,28.1560,-82.7580,14.99,1111122 
COMPS,ioos:station:USF.COMPS:TAR:1,2009-03-01T21:36:00Z,28.1560,-82.7580,15.0,1111122 
COMPS,ioos:station:USF.COMPS:TAR:1,2009-03-01T21:42:00Z,28.1560,-82.7580,14.67,1111122 
COMPS,ioos:station:USF.COMPS:TAR:1,2009-03-01T21:48:00Z,28.1560,-82.7580,14.72,1111122 
COMPS,ioos:station:USF.COMPS:TAR:1,2009-03-01T21:54:00Z,28.1560,-82.7580,14.84,1111122 
COMPS,ioos:station:USF.COMPS:TAR:1,2009-03-01T22:00:00Z,28.1560,-82.7580,14.79,1111122 
COMPS,ioos:station:USF.COMPS:TAR:1,2009-03-01T22:06:00Z,28.1560,-82.7580,14.64,1111122 
COMPS,ioos:station:USF.COMPS:TAR:1,2009-03-01T22:12:00Z,28.1560,-82.7580,14.7,1111122 
COMPS,ioos:station:USF.COMPS:TAR:1,2009-03-01T22:18:00Z,28.1560,-82.7580,14.35,1111122 
COMPS,ioos:station:USF.COMPS:TAR:1,2009-03-01T22:24:00Z,28.1560,-82.7580,13.93,1111122 
COMPS,ioos:station:USF.COMPS:TAR:1,2009-03-01T22:30:00Z,28.1560,-82.7580,13.78,1111122 
COMPS,ioos:station:USF.COMPS:TAR:1,2009-03-01T22:36:00Z,28.1560,-82.7580,13.54,1111122 
COMPS,ioos:station:USF.COMPS:TAR:1,2009-03-01T22:42:00Z,28.1560,-82.7580,13.53,1111122 
COMPS,ioos:station:USF.COMPS:TAR:1,2009-03-01T22:48:00Z,28.1560,-82.7580,13.45,1111122 
COMPS,ioos:station:USF.COMPS:TAR:1,2009-03-01T22:54:00Z,28.1560,-82.7580,13.43,1111122 
COMPS,ioos:station:USF.COMPS:TAR:1,2009-03-01T23:00:00Z,28.1560,-82.7580,13.7,1111122 
COMPS,ioos:station:USF.COMPS:TAR:1,2009-03-01T23:06:00Z,28.1560,-82.7580,13.78,1111122 
COMPS,ioos:station:USF.COMPS:TAR:1,2009-03-01T23:12:00Z,28.1560,-82.7580,13.88,1111122 
COMPS,ioos:station:USF.COMPS:TAR:1,2009-03-01T23:18:00Z,28.1560,-82.7580,13.84,1111122 
COMPS,ioos:station:USF.COMPS:TAR:1,2009-03-01T23:24:00Z,28.1560,-82.7580,14.01,1111122 
COMPS,ioos:station:USF.COMPS:TAR:1,2009-03-01T23:30:00Z,28.1560,-82.7580,14.07,1111122 
COMPS,ioos:station:USF.COMPS:TAR:1,2009-03-01T23:36:00Z,28.1560,-82.7580,14.05,1111122 
COMPS,ioos:station:USF.COMPS:TAR:1,2009-03-01T23:42:00Z,28.1560,-82.7580,13.91,1111122 
COMPS,ioos:station:USF.COMPS:TAR:1,2009-03-01T23:48:00Z,28.1560,-82.7580,13.91,1111122 
COMPS,ioos:station:USF.COMPS:TAR:1,2009-03-01T23:54:00Z,28.1560,-82.7580,13.79,1111122 
COMPS,ioos:station:USF.COMPS:TAR:1,2009-03-02T00:00:00Z,28.1560,-82.7580,13.48,1111122 
COMPS,ioos:station:USF.COMPS:TAR:1,2009-03-02T00:06:00Z,28.1560,-82.7580,13.47,1111122 
COMPS,ioos:station:USF.COMPS:TAR:1,2009-03-02T00:12:00Z,28.1560,-82.7580,13.53,1111122 
COMPS,ioos:station:USF.COMPS:TAR:1,2009-03-02T00:18:00Z,28.1560,-82.7580,13.69,1111122 
COMPS,ioos:station:USF.COMPS:TAR:1,2009-03-02T00:24:00Z,28.1560,-82.7580,13.8,1111122 
COMPS,ioos:station:USF.COMPS:TAR:1,2009-03-02T00:30:00Z,28.1560,-82.7580,13.77,1111122 
COMPS,ioos:station:USF.COMPS:TAR:1,2009-03-02T00:36:00Z,28.1560,-82.7580,13.94,1111122 
COMPS,ioos:station:USF.COMPS:TAR:1,2009-03-02T00:42:00Z,28.1560,-82.7580,13.76,1111122 
COMPS,ioos:station:USF.COMPS:TAR:1,2009-03-02T00:48:00Z,28.1560,-82.7580,13.31,1111122 
COMPS,ioos:station:USF.COMPS:TAR:1,2009-03-02T00:54:00Z,28.1560,-82.7580,12.9,1111122 
COMPS,ioos:station:USF.COMPS:TAR:1,2009-03-02T01:00:00Z,28.1560,-82.7580,12.57,1111122 
COMPS,ioos:station:USF.COMPS:TAR:1,2009-03-02T01:06:00Z,28.1560,-82.7580,12.64,1111122 
COMPS,ioos:station:USF.COMPS:TAR:1,2009-03-02T01:12:00Z,28.1560,-82.7580,12.58,1111122 
COMPS,ioos:station:USF.COMPS:TAR:1,2009-03-02T01:18:00Z,28.1560,-82.7580,12.54,1111122 
COMPS,ioos:station:USF.COMPS:TAR:1,2009-03-02T01:24:00Z,28.1560,-82.7580,12.71,1111122 
COMPS,ioos:station:USF.COMPS:TAR:1,2009-03-02T01:30:00Z,28.1560,-82.7580,12.81,1111122 
COMPS,ioos:station:USF.COMPS:TAR:1,2009-03-02T01:36:00Z,28.1560,-82.7580,12.85,1111122 
COMPS,ioos:station:USF.COMPS:TAR:1,2009-03-02T01:42:00Z,28.1560,-82.7580,12.91,1111122 
COMPS,ioos:station:USF.COMPS:TAR:1,2009-03-02T01:48:00Z,28.1560,-82.7580,12.71,1111122 
COMPS,ioos:station:USF.COMPS:TAR:1,2009-03-02T01:54:00Z,28.1560,-82.7580,12.51,1111122 
COMPS,ioos:station:USF.COMPS:TAR:1,2009-03-02T02:00:00Z,28.1560,-82.7580,12.4,1111122 
COMPS,ioos:station:USF.COMPS:TAR:1,2009-03-02T02:06:00Z,28.1560,-82.7580,12.28,1111122 
COMPS,ioos:station:USF.COMPS:TAR:1,2009-03-02T02:12:00Z,28.1560,-82.7580,12.33,1111122 
COMPS,ioos:station:USF.COMPS:TAR:1,2009-03-02T02:18:00Z,28.1560,-82.7580,12.13,1111122 
COMPS,ioos:station:USF.COMPS:TAR:1,2009-03-02T02:24:00Z,28.1560,-82.7580,12.06,1111122 
COMPS,ioos:station:USF.COMPS:TAR:1,2009-03-02T02:30:00Z,28.1560,-82.7580,11.83,1111122 
COMPS,ioos:station:USF.COMPS:TAR:1,2009-03-02T02:36:00Z,28.1560,-82.7580,11.78,1111122 
COMPS,ioos:station:USF.COMPS:TAR:1,2009-03-02T02:42:00Z,28.1560,-82.7580,11.81,1111122 
COMPS,ioos:station:USF.COMPS:TAR:1,2009-03-02T02:48:00Z,28.1560,-82.7580,11.49,1111122 
COMPS,ioos:station:USF.COMPS:TAR:1,2009-03-02T02:54:00Z,28.1560,-82.7580,11.41,1111122 
COMPS,ioos:station:USF.COMPS:TAR:1,2009-03-02T03:00:00Z,28.1560,-82.7580,11.25,1111122 
COMPS,ioos:station:USF.COMPS:TAR:1,2009-03-02T03:06:00Z,28.1560,-82.7580,11.22,1111122 